Location: C�an Torras
(41.5052°N, 1.9280°E)
Time: 18:27:21
(UTC+00:00)

MOS 1 Rocket - Pass Details

Date: 20 January 2021
Orbit: 614 x 830 km, 97.4° (Epoch: 03 March)

Event Time Altitude Azimuth Distance (km) Brightness Sun altitude
Rises 18:41:28 0° 4° (N) 2,924 6.4 -20.0°
Reaches altitude 10° 18:43:45 10° 358° (N) 1,997 5.6 -20.4°
Maximum altitude 18:47:49 42° 288° (WNW) 887 4.3 -21.2°
Drops below altitude 10° 18:51:50 10° 217° (SW) 1,972 6.2 -21.9°
Sets 18:54:05 0° 211° (SSW) 2,882 7.0 -22.3°
